,,Stat5,,Stat1,,Stat2,,Stat3,,Stat4,,Wind1,,Wind1,
time,status,PA1M_AVG,status,PR1M_SUM,status,RH1M_AVG,status,SR1M_AVG,status,TA1M_AVG,status,W1dAve1m,status,W1sAve1m,
2002-11-04, 00:00:00,VALID,918.053,VALID,0,VALID,97.2638,VALID,0,VALID,20.3169,VALID,41,VALID,0,
2002-11-04, 00:01:00,VALID,918.03,VALID,0,VALID,97.1938,VALID,0.0169808,VALID,20.2976,VALID,41,VALID,0,
2002-11-04, 00:02:00,VALID,918.021,VALID,0,VALID,97.0756,VALID,0.0509425,VALID,20.2841,VALID,41,VALID,0,
2002-11-04, 00:03:00,VALID,918.004,VALID,0,VALID,96.9789,VALID,0,VALID,20.2687,VALID,41,VALID,0,
2002-11-04, 00:04:00,VALID,918.007,VALID,0,VALID,96.998,VALID,0.0169808,VALID,20.2655,VALID,41,VALID,0,
2002-11-04, 00:05:00,VALID,917.977,VALID,0,VALID,97.1468,VALID,0.0169808,VALID,20.2916,VALID,37,VALID,0.0954072,
2002-11-04, 00:06:00,VALID,917.973,VALID,0,VALID,97.1213,VALID,0,VALID,20.2814,VALID,340,VALID,0.259252,
2002-11-04, 00:07:00,VALID,917.965,VALID,0,VALID,97.0578,VALID,0,VALID,20.2881,VALID,324,VALID,0.222873,
2002-11-04, 00:08:00,VALID,917.976,VALID,0,VALID,96.9789,VALID,0,VALID,20.2817,VALID,324,VALID,0.340712,
2002-11-04, 00:09:00,VALID,917.98,VALID,0,VALID,96.8467,VALID,0.0169808,VALID,20.2754,VALID,324,VALID,0.29579,
2002-11-04, 00:10:00,VALID,917.961,VALID,0,VALID,96.9064,VALID,0.0169808,VALID,20.2717,VALID,324,VALID,0.172321,
2002-11-04, 00:11:00,VALID,917.974,VALID,0,VALID,96.9319,VALID,0,VALID,20.2916,VALID,324,VALID,0.0649038,
2002-11-04, 00:12:00,VALID,917.968,VALID,0,VALID,96.7577,VALID,0.0169808,VALID,20.2822,VALID,325,VALID,0.157434,
2002-11-04, 00:13:00,VALID,917.956,VALID,0,VALID,96.7373,VALID,0.0169808,VALID,20.269,VALID,325,VALID,0.221917,
2002-11-04, 00:14:00,VALID,917.942,VALID,0,VALID,96.9777,VALID,0,VALID,20.2943,VALID,323,VALID,0.28776,
2002-11-04, 00:15:00,VALID,917.938,VALID,0,VALID,97.3235,VALID,0,VALID,20.3527,VALID,304,VALID,0.410807,
2002-11-04, 00:16:00,VALID,917.93,VALID,0,VALID,97.5283,VALID,0.0169808,VALID,20.3977,VALID,300,VALID,0.546441,
2002-11-04, 00:17:00,VALID,917.916,VALID,0,VALID,97.5995,VALID,0,VALID,20.4211,VALID,303,VALID,0.646429,
2002-11-04, 00:18:00,VALID,917.897,VALID,0,VALID,97.6821,VALID,0.0169808,VALID,20.4235,VALID,315,VALID,0.267829,
2002-11-04, 00:19:00,VALID,917.893,VALID,0,VALID,97.6719,VALID,0.0169808,VALID,20.4176,VALID,339,VALID,0.305398,
2002-11-04, 00:20:00,VALID,917.865,VALID,0,VALID,97.588,VALID,-0.0169808,VALID,20.4189,VALID,357,VALID,0.163851,
2002-11-04, 00:21:00,VALID,917.85,VALID,0,VALID,97.5499,VALID,-0.0169808,VALID,20.4025,VALID,7,VALID,0.560547,
2002-11-04, 00:22:00,VALID,917.833,VALID,0,VALID,97.527,VALID,-0.0679233,VALID,20.4027,VALID,11,VALID,0.349826,
2002-11-04, 00:23:00,VALID,917.809,VALID,0,VALID,97.6236,VALID,-0.101885,VALID,20.4288,VALID,14,VALID,0.492839,
2002-11-04, 00:24:00,VALID,917.793,VALID,0,VALID,97.6338,VALID,-0.0509425,VALID,20.4512,VALID,26,VALID,0.504241,
2002-11-04, 00:25:00,VALID,917.783,VALID,0,VALID,97.5842,VALID,-0.0509425,VALID,20.4576,VALID,354,VALID,0.385817,
2002-11-04, 00:26:00,VALID,917.743,VALID,0,VALID,97.5206,VALID,-0.0849042,VALID,20.4445,VALID,355,VALID,0.482244,
2002-11-04, 00:27:00,VALID,917.735,VALID,0,VALID,97.5829,VALID,-0.0339617,VALID,20.4318,VALID,355,VALID,0.253378,
2002-11-04, 00:28:00,VALID,917.739,VALID,0,VALID,97.6732,VALID,-0.0339617,VALID,20.4313,VALID,355,VALID,0.0388455,
2002-11-04, 00:29:00,VALID,917.736,VALID,0,VALID,97.7317,VALID,-0.0339617,VALID,20.4412,VALID,2,VALID,0.0902778,
2002-11-04, 00:30:00,VALID,917.74,VALID,0,VALID,97.7889,VALID,0,VALID,20.4472,VALID,8,VALID,0.226997,
2002-11-04, 00:31:00,VALID,917.743,VALID,0,VALID,97.7406,VALID,0,VALID,20.4509,VALID,32,VALID,0.579911,
2002-11-04, 00:32:00,VALID,917.735,VALID,0,VALID,97.7851,VALID,-0.0509425,VALID,20.4313,VALID,41,VALID,0.140825,
2002-11-04, 00:33:00,VALID,917.74,VALID,0,VALID,97.8945,VALID,-0.0679233,VALID,20.4315,VALID,41,VALID,0.0719697,
2002-11-04, 00:34:00,VALID,917.72,VALID,0,VALID,97.939,VALID,-0.0849042,VALID,20.4477,VALID,41,VALID,0.175676,
2002-11-04, 00:35:00,VALID,917.709,VALID,0,VALID,97.9581,VALID,-0.0339617,VALID,20.444,VALID,41,VALID,0.00130208,
2002-11-04, 00:36:00,VALID,917.689,VALID,0,VALID,97.9568,VALID,-0.0679233,VALID,20.438,VALID,41,VALID,0.0243056,
2002-11-04, 00:37:00,VALID,917.671,VALID,0,VALID,97.9886,VALID,-0.0679233,VALID,20.4313,VALID,41,VALID,0.0581597,
2002-11-04, 00:38:00,VALID,917.64,VALID,0,VALID,98.0738,VALID,-0.0679233,VALID,20.4512,VALID,41,VALID,0.221205,
2002-11-04, 00:39:00,VALID,917.614,VALID,0,VALID,98.0534,VALID,-0.0679233,VALID,20.438,VALID,41,VALID,0.524038,
2002-11-04, 00:40:00,VALID,917.572,VALID,0,VALID,97.9962,VALID,-0.101885,VALID,20.4253,VALID,33,VALID,0.94839,
2002-11-04, 00:41:00,VALID,917.54,VALID,0,VALID,98.0344,VALID,-0.101885,VALID,20.4082,VALID,26,VALID,1.16702,
2002-11-04, 00:42:00,VALID,917.516,VALID,0,VALID,98.0242,VALID,-0.0849042,VALID,20.4022,VALID,25,VALID,1.0293,
2002-11-04, 00:43:00,VALID,917.485,VALID,0,VALID,98.0483,VALID,-0.0509425,VALID,20.396,VALID,25,VALID,0.845486,
2002-11-04, 00:44:00,VALID,917.463,VALID,0,VALID,98.0636,VALID,-0.0849042,VALID,20.4025,VALID,23,VALID,0.727865,
2002-11-04, 00:45:00,VALID,917.455,VALID,0,VALID,98.07,VALID,-0.0679233,VALID,20.3917,VALID,20,VALID,0.706027,
2002-11-04, 00:46:00,VALID,917.457,VALID,0,VALID,98.0839,VALID,-0.0169808,VALID,20.406,VALID,16,VALID,0.69992,
2002-11-04, 00:47:00,VALID,917.449,VALID,0,VALID,98.1132,VALID,-0.0679233,VALID,20.4122,VALID,16,VALID,0.897254,
2002-11-04, 00:48:00,VALID,917.445,VALID,0,VALID,98.0242,VALID,-0.0679233,VALID,20.4092,VALID,25,VALID,0.963049,
2002-11-04, 00:49:00,VALID,917.428,VALID,0,VALID,97.9898,VALID,-0.101885,VALID,20.3928,VALID,18,VALID,0.913194,
2002-11-04, 00:50:00,VALID,917.422,VALID,0,VALID,97.9542,VALID,-0.0509425,VALID,20.3766,VALID,10,VALID,0.817925,
2002-11-04, 00:51:00,VALID,917.395,VALID,0,VALID,97.9848,VALID,-0.0849042,VALID,20.3868,VALID,350,VALID,0.759332,
2002-11-04, 00:52:00,VALID,917.385,VALID,0,VALID,98.0331,VALID,-0.0509425,VALID,20.4092,VALID,326,VALID,0.679911,
2002-11-04, 00:53:00,VALID,917.369,VALID,0,VALID,98.0369,VALID,-0.0679233,VALID,20.4122,VALID,331,VALID,0.275841,
2002-11-04, 00:54:00,VALID,917.344,VALID,0,VALID,98.0687,VALID,-0.0679233,VALID,20.4375,VALID,352,VALID,0.387311,
2002-11-04, 00:55:00,VALID,917.349,VALID,0,VALID,98.0674,VALID,-0.101885,VALID,20.4838,VALID,24,VALID,0.731841,
2002-11-04, 00:56:00,VALID,917.336,VALID,0,VALID,97.9161,VALID,-0.0679233,VALID,20.4735,VALID,34,VALID,0.545573,
2002-11-04, 00:57:00,VALID,917.33,VALID,0,VALID,97.8004,VALID,-0.0339617,VALID,20.4735,VALID,45,VALID,0.317057,
2002-11-04, 00:58:00,VALID,917.328,VALID,0,VALID,97.7355,VALID,-0.0849042,VALID,20.4728,VALID,45,VALID,0.00412326,
2002-11-04, 00:59:00,VALID,917.317,VALID,0,VALID,97.6669,VALID,-0.0679233,VALID,20.4929,VALID,45,VALID,0,
2002-11-04, 01:00:00,VALID,917.317,VALID,0,VALID,97.6173,VALID,-0.0509425,VALID,20.4991,VALID,55,VALID,0.272991,
2002-11-04, 01:01:00,VALID,917.314,VALID,0,VALID,97.5435,VALID,-0.101885,VALID,20.5056,VALID,212,VALID,0.348958,
2002-11-04, 01:02:00,VALID,917.323,VALID,0,VALID,97.5066,VALID,-0.0509425,VALID,20.5123,VALID,192,VALID,0.334459,
2002-11-04, 01:03:00,VALID,917.318,VALID,0,VALID,97.5397,VALID,-0.0849042,VALID,20.5314,VALID,189,VALID,0.12066,
2002-11-04, 01:04:00,VALID,917.321,VALID,0,VALID,97.4672,VALID,-0.0339617,VALID,20.5479,VALID,198,VALID,0.318793,
2002-11-04, 01:05:00,VALID,917.306,VALID,0,VALID,97.3502,VALID,0.0339617,VALID,20.5369,VALID,233,VALID,0.442491,
2002-11-04, 01:06:00,VALID,917.291,VALID,0,VALID,97.3172,VALID,0,VALID,20.514,VALID,245,VALID,0.31183,
2002-11-04, 01:07:00,VALID,917.281,VALID,0,VALID,97.4113,VALID,0.0679233,VALID,20.5234,VALID,247,VALID,0.138622,
2002-11-04, 01:08:00,VALID,917.275,VALID,0,VALID,97.4723,VALID,0.0339617,VALID,20.5528,VALID,247,VALID,0,
2002-11-04, 01:09:00,VALID,917.253,VALID,0,VALID,97.424,VALID,0.0169808,VALID,20.5522,VALID,247,VALID,0,
2002-11-04, 01:10:00,VALID,917.227,VALID,0,VALID,97.4202,VALID,0.0509425,VALID,20.559,VALID,247,VALID,0.0909288,
2002-11-04, 01:11:00,VALID,917.219,VALID,0,VALID,97.4062,VALID,0.0679233,VALID,20.5654,VALID,247,VALID,0.194661,
2002-11-04, 01:12:00,VALID,917.208,VALID,0,VALID,97.3998,VALID,0.0679233,VALID,20.559,VALID,247,VALID,0.161024,
2002-11-04, 01:13:00,VALID,917.208,VALID,0,VALID,97.438,VALID,0.0339617,VALID,20.5687,VALID,247,VALID,0.00267857,
2002-11-04, 01:14:00,VALID,917.233,VALID,0,VALID,97.5295,VALID,0,VALID,20.5851,VALID,247,VALID,0,
2002-11-04, 01:15:00,VALID,917.219,VALID,0,VALID,97.5689,VALID,0.0169808,VALID,20.6042,VALID,275,VALID,0.108428,
2002-11-04, 01:16:00,VALID,917.201,VALID,0,VALID,97.6122,VALID,0.0339617,VALID,20.6338,VALID,350,VALID,0.291385,
2002-11-04, 01:17:00,VALID,917.187,VALID,0,VALID,97.616,VALID,0.0509425,VALID,20.6529,VALID,350,VALID,0.181424,
2002-11-04, 01:18:00,VALID,917.16,VALID,0,VALID,97.5486,VALID,0.0509425,VALID,20.682,VALID,350,VALID,0.0399306,
2002-11-04, 01:19:00,VALID,917.141,VALID,0,VALID,97.4431,VALID,0,VALID,20.6685,VALID,349,VALID,0.0015191,
2002-11-04, 01:20:00,VALID,917.143,VALID,0,VALID,97.3655,VALID,0.0339617,VALID,20.6723,VALID,349,VALID,0.0774554,
2002-11-04, 01:21:00,VALID,917.126,VALID,0,VALID,97.3769,VALID,0.0339617,VALID,20.6887,VALID,349,VALID,0.132011,
2002-11-04, 01:22:00,VALID,917.095,VALID,0,VALID,97.368,VALID,0.0339617,VALID,20.7078,VALID,349,VALID,0.0390625,
2002-11-04, 01:23:00,VALID,917.081,VALID,0,VALID,97.3083,VALID,0.0339617,VALID,20.7006,VALID,349,VALID,0.0278716,
2002-11-04, 01:24:00,VALID,917.063,VALID,0,VALID,97.2765,VALID,0.0169808,VALID,20.7173,VALID,349,VALID,0,
2002-11-04, 01:25:00,VALID,917.054,VALID,0,VALID,97.2383,VALID,0.0169808,VALID,20.7262,VALID,349,VALID,0,
2002-11-04, 01:26:00,VALID,917.036,VALID,0,VALID,97.176,VALID,0,VALID,20.7332,VALID,349,VALID,0,
2002-11-04, 01:27:00,VALID,917.033,VALID,0,VALID,97.1608,VALID,0.0339617,VALID,20.7463,VALID,349,VALID,0,
2002-11-04, 01:28:00,VALID,917.006,VALID,0,VALID,97.0756,VALID,0.0169808,VALID,20.7429,VALID,349,VALID,0.127003,
2002-11-04, 01:29:00,VALID,916.99,VALID,0,VALID,97.0069,VALID,0.0169808,VALID,20.7167,VALID,349,VALID,0.0314867,
2002-11-04, 01:30:00,VALID,916.973,VALID,0,VALID,97.0183,VALID,0.0169808,VALID,20.7038,VALID,349,VALID,0.011402,
2002-11-04, 01:31:00,VALID,916.956,VALID,0,VALID,97.115,VALID,0.0339617,VALID,20.7135,VALID,349,VALID,0,
2002-11-04, 01:32:00,VALID,916.937,VALID,0,VALID,97.1608,VALID,0.0169808,VALID,20.7297,VALID,349,VALID,0,
2002-11-04, 01:33:00,VALID,916.929,VALID,0,VALID,97.101,VALID,0,VALID,20.7262,VALID,349,VALID,0,
2002-11-04, 01:34:00,VALID,916.913,VALID,0,VALID,97.0845,VALID,0.0169808,VALID,20.7367,VALID,349,VALID,0.0486607,
2002-11-04, 01:35:00,VALID,916.92,VALID,0,VALID,97.0082,VALID,0,VALID,20.7361,VALID,349,VALID,0.324119,
2002-11-04, 01:36:00,VALID,916.911,VALID,0,VALID,96.9484,VALID,0.0509425,VALID,20.7262,VALID,349,VALID,0.341146,
2002-11-04, 01:37:00,VALID,916.901,VALID,0,VALID,96.9344,VALID,0.0339617,VALID,20.7068,VALID,349,VALID,0.293285,
2002-11-04, 01:38:00,VALID,916.892,VALID,0,VALID,97.0056,VALID,0.0169808,VALID,20.714,VALID,314,VALID,0.145399,
2002-11-04, 01:39:00,VALID,916.872,VALID,0,VALID,96.9598,VALID,0.101885,VALID,20.6904,VALID,221,VALID,0.342882,
2002-11-04, 01:40:00,VALID,916.857,VALID,0,VALID,96.9471,VALID,0.0679233,VALID,20.6747,VALID,214,VALID,0.305122,
2002-11-04, 01:41:00,VALID,916.847,VALID,0,VALID,96.9726,VALID,0.0169808,VALID,20.6777,VALID,206,VALID,0.194866,
2002-11-04, 01:42:00,VALID,916.843,VALID,0,VALID,96.9878,VALID,0.0849042,VALID,20.6812,VALID,207,VALID,0.195112,
2002-11-04, 01:43:00,VALID,916.827,VALID,0,VALID,96.9446,VALID,0.0509425,VALID,20.668,VALID,207,VALID,0.199574,
2002-11-04, 01:44:00,VALID,916.83,VALID,0,VALID,96.9598,VALID,0.0169808,VALID,20.6586,VALID,207,VALID,0.0219595,
2002-11-04, 01:45:00,VALID,916.819,VALID,0,VALID,97.0031,VALID,0.0509425,VALID,20.672,VALID,209,VALID,0.0961372,
2002-11-04, 01:46:00,VALID,916.812,VALID,0,VALID,96.9598,VALID,0.0339617,VALID,20.6688,VALID,211,VALID,0.00868056,
2002-11-04, 01:47:00,VALID,916.814,VALID,0,VALID,96.9815,VALID,0.0169808,VALID,20.6554,VALID,211,VALID,0,
2002-11-04, 01:48:00,VALID,916.796,VALID,0,VALID,96.9433,VALID,0.0169808,VALID,20.6357,VALID,211,VALID,0,
2002-11-04, 01:49:00,VALID,916.796,VALID,0,VALID,96.9827,VALID,0.0339617,VALID,20.6293,VALID,211,VALID,0,
2002-11-04, 01:50:00,VALID,916.788,VALID,0,VALID,96.9281,VALID,0.0849042,VALID,20.6397,VALID,211,VALID,0,
2002-11-04, 01:51:00,VALID,916.787,VALID,0,VALID,96.8785,VALID,0,VALID,20.6198,VALID,211,VALID,0.00591216,
2002-11-04, 01:52:00,VALID,916.797,VALID,0,VALID,96.9128,VALID,0.0169808,VALID,20.5873,VALID,145,VALID,0.264757,
2002-11-04, 01:53:00,VALID,916.771,VALID,0,VALID,96.8975,VALID,0.0509425,VALID,20.5846,VALID,115,VALID,0.217231,
2002-11-04, 01:54:00,VALID,916.767,VALID,0,VALID,96.9624,VALID,0.0339617,VALID,20.5647,VALID,115,VALID,0.19184,
2002-11-04, 01:55:00,VALID,916.758,VALID,0,VALID,97.0845,VALID,0,VALID,20.5552,VALID,115,VALID,0.144866,
2002-11-04, 01:56:00,VALID,916.739,VALID,0,VALID,97.2129,VALID,0,VALID,20.5455,VALID,115,VALID,0.00160256,
2002-11-04, 01:57:00,VALID,916.724,VALID,0,VALID,97.3324,VALID,0.0509425,VALID,20.5517,VALID,115,VALID,0,
2002-11-04, 01:58:00,VALID,916.721,VALID,0,VALID,97.4113,VALID,0.0339617,VALID,20.5617,VALID,115,VALID,0,
2002-11-04, 01:59:00,VALID,916.721,VALID,0,VALID,97.4901,VALID,0.0169808,VALID,20.5846,VALID,115,VALID,0,
2002-11-04, 02:00:00,VALID,916.718,VALID,0,VALID,97.4609,VALID,0.0169808,VALID,20.5878,VALID,115,VALID,0,
2002-11-04, 02:01:00,VALID,916.724,VALID,0,VALID,97.3808,VALID,0,VALID,20.5816,VALID,115,VALID,0,
2002-11-04, 02:02:00,VALID,916.704,VALID,0,VALID,97.3413,VALID,0.0339617,VALID,20.5582,VALID,115,VALID,0.0178571,
2002-11-04, 02:03:00,VALID,916.715,VALID,0,VALID,97.349,VALID,0.0169808,VALID,20.549,VALID,115,VALID,0.305288,
2002-11-04, 02:04:00,VALID,916.686,VALID,0,VALID,97.457,VALID,0.0339617,VALID,20.5326,VALID,113,VALID,0.392282,
2002-11-04, 02:05:00,VALID,916.671,VALID,0,VALID,97.5244,VALID,0.0169808,VALID,20.5197,VALID,103,VALID,0.415541,
2002-11-04, 02:06:00,VALID,916.645,VALID,0,VALID,97.5766,VALID,0.0169808,VALID,20.5299,VALID,99,VALID,0.412109,
2002-11-04, 02:07:00,VALID,916.602,VALID,0,VALID,97.5728,VALID,0.0339617,VALID,20.5205,VALID,99,VALID,0.346571,
2002-11-04, 02:08:00,VALID,916.565,VALID,0,VALID,97.644,VALID,0.0339617,VALID,20.4869,VALID,99,VALID,0.231337,
2002-11-04, 02:09:00,VALID,916.531,VALID,0,VALID,97.6936,VALID,0.0169808,VALID,20.4809,VALID,99,VALID,0.246429,
2002-11-04, 02:10:00,VALID,916.498,VALID,0,VALID,97.7012,VALID,0.0339617,VALID,20.4645,VALID,99,VALID,0.58754,
2002-11-04, 02:11:00,VALID,916.5,VALID,0,VALID,97.7737,VALID,0.0339617,VALID,20.4583,VALID,100,VALID,0.704309,
2002-11-04, 02:12:00,VALID,916.513,VALID,0,VALID,97.8144,VALID,0.0339617,VALID,20.4427,VALID,102,VALID,0.543285,
2002-11-04, 02:13:00,VALID,916.516,VALID,0,VALID,97.8436,VALID,0,VALID,20.4265,VALID,105,VALID,0.47895,
2002-11-04, 02:14:00,VALID,916.525,VALID,0,VALID,97.8996,VALID,0.0169808,VALID,20.4138,VALID,106,VALID,0.422743,
2002-11-04, 02:15:00,VALID,916.518,VALID,0,VALID,97.8805,VALID,0.0339617,VALID,20.3905,VALID,87,VALID,0.545573,
2002-11-04, 02:16:00,VALID,916.507,VALID,0,VALID,97.8779,VALID,0.0169808,VALID,20.3649,VALID,72,VALID,0.69442,
2002-11-04, 02:17:00,VALID,916.506,VALID,0,VALID,97.8958,VALID,0,VALID,20.3458,VALID,75,VALID,0.642628,
2002-11-04, 02:18:00,VALID,916.497,VALID,0,VALID,97.9542,VALID,0,VALID,20.3293,VALID,72,VALID,0.60464,
2002-11-04, 02:19:00,VALID,916.501,VALID,0,VALID,97.9835,VALID,-0.0169808,VALID,20.3164,VALID,54,VALID,0.493454,
2002-11-04, 02:20:00,VALID,916.506,VALID,0,VALID,98.014,VALID,-0.0339617,VALID,20.308,VALID,54,VALID,0.348741,
2002-11-04, 02:21:00,VALID,916.496,VALID,0,VALID,98.0598,VALID,-0.0509425,VALID,20.3048,VALID,54,VALID,0.328559,
2002-11-04, 02:22:00,VALID,916.49,VALID,0,VALID,98.0839,VALID,0,VALID,20.3212,VALID,52,VALID,0.271701,
2002-11-04, 02:23:00,VALID,916.481,VALID,0,VALID,98.1259,VALID,-0.0509425,VALID,20.3311,VALID,41,VALID,0.21875,
2002-11-04, 02:24:00,VALID,916.462,VALID,0,VALID,98.1119,VALID,-0.0339617,VALID,20.3174,VALID,41,VALID,0.130409,
2002-11-04, 02:25:00,VALID,916.464,VALID,0,VALID,98.0928,VALID,-0.0169808,VALID,20.3212,VALID,41,VALID,0.136364,
2002-11-04, 02:26:00,VALID,916.465,VALID,0,VALID,98.1335,VALID,-0.0509425,VALID,20.3242,VALID,41,VALID,0.232686,
2002-11-04, 02:27:00,VALID,916.464,VALID,0,VALID,98.1412,VALID,-0.0169808,VALID,20.3304,VALID,41,VALID,0.283203,
2002-11-04, 02:28:00,VALID,916.482,VALID,0,VALID,98.1208,VALID,-0.0339617,VALID,20.351,VALID,41,VALID,0.400608,
2002-11-04, 02:29:00,VALID,916.486,VALID,0,VALID,98.0178,VALID,-0.0509425,VALID,20.3112,VALID,37,VALID,0.573568,
2002-11-04, 02:30:00,VALID,916.473,VALID,0,VALID,98.042,VALID,-0.0509425,VALID,20.3118,VALID,22,VALID,0.724777,
2002-11-04, 02:31:00,VALID,916.468,VALID,0,VALID,98.0458,VALID,0,VALID,20.3013,VALID,22,VALID,0.773638,
2002-11-04, 02:32:00,VALID,916.466,VALID,0,VALID,97.9987,VALID,-0.0169808,VALID,20.2921,VALID,21,VALID,0.691998,
2002-11-04, 02:33:00,VALID,916.444,VALID,0,VALID,97.9898,VALID,0,VALID,20.266,VALID,14,VALID,0.838682,
2002-11-04, 02:34:00,VALID,916.423,VALID,0,VALID,97.953,VALID,-0.0339617,VALID,20.2305,VALID,12,VALID,0.800781,
2002-11-04, 02:35:00,VALID,916.393,VALID,0,VALID,97.9924,VALID,-0.0169808,VALID,20.2208,VALID,11,VALID,0.672092,
2002-11-04, 02:36:00,VALID,916.373,VALID,0,VALID,98.089,VALID,0,VALID,20.2049,VALID,11,VALID,0.441623,
2002-11-04, 02:37:00,VALID,916.378,VALID,0,VALID,98.1323,VALID,-0.0169808,VALID,20.2051,VALID,11,VALID,0.21942,
2002-11-04, 02:38:00,VALID,916.367,VALID,0,VALID,98.2238,VALID,-0.0169808,VALID,20.1917,VALID,11,VALID,0.00300481,
2002-11-04, 02:39:00,VALID,916.383,VALID,0,VALID,98.2836,VALID,-0.0339617,VALID,20.2017,VALID,11,VALID,0.0108902,
2002-11-04, 02:40:00,VALID,916.378,VALID,0,VALID,98.2963,VALID,0,VALID,20.2046,VALID,11,VALID,0.082348,
2002-11-04, 02:41:00,VALID,916.378,VALID,0,VALID,98.3077,VALID,0,VALID,20.1949,VALID,11,VALID,0.289714,
2002-11-04, 02:42:00,VALID,916.365,VALID,0,VALID,98.3243,VALID,-0.0169808,VALID,20.192,VALID,10,VALID,0.194878,
2002-11-04, 02:43:00,VALID,916.367,VALID,0,VALID,98.3751,VALID,0,VALID,20.1915,VALID,11,VALID,0.0957031,
2002-11-04, 02:44:00,VALID,916.357,VALID,0,VALID,98.4018,VALID,0,VALID,20.1984,VALID,9,VALID,0.153348,
2002-11-04, 02:45:00,VALID,916.344,VALID,0,VALID,98.4311,VALID,0,VALID,20.2076,VALID,8,VALID,0.213542,
2002-11-04, 02:46:00,VALID,916.335,VALID,0,VALID,98.4858,VALID,0,VALID,20.2205,VALID,5,VALID,0.162405,
2002-11-04, 02:47:00,VALID,916.331,VALID,0,VALID,98.5125,VALID,-0.0169808,VALID,20.2335,VALID,360,VALID,0.273226,
2002-11-04, 02:48:00,VALID,916.301,VALID,0,VALID,98.5087,VALID,-0.0169808,VALID,20.2402,VALID,357,VALID,0.177517,
2002-11-04, 02:49:00,VALID,916.302,VALID,0,VALID,98.5087,VALID,0,VALID,20.2372,VALID,355,VALID,0.183594,
2002-11-04, 02:50:00,VALID,916.288,VALID,0,VALID,98.5341,VALID,-0.0679233,VALID,20.2437,VALID,355,VALID,0.124566,
2002-11-04, 02:51:00,VALID,916.268,VALID,0,VALID,98.5722,VALID,-0.0339617,VALID,20.2601,VALID,10,VALID,0.41808,
2002-11-04, 02:52:00,VALID,916.276,VALID,0,VALID,98.5684,VALID,-0.0169808,VALID,20.2762,VALID,30,VALID,0.336338,
2002-11-04, 02:53:00,VALID,916.269,VALID,0,VALID,98.5265,VALID,0,VALID,20.2794,VALID,23,VALID,0.373816,
2002-11-04, 02:54:00,VALID,916.279,VALID,0,VALID,98.4921,VALID,-0.0169808,VALID,20.2725,VALID,22,VALID,0.357686,
2002-11-04, 02:55:00,VALID,916.272,VALID,0,VALID,98.3904,VALID,0,VALID,20.2431,VALID,21,VALID,0.554688,
2002-11-04, 02:56:00,VALID,916.274,VALID,0,VALID,98.3383,VALID,-0.0169808,VALID,20.2275,VALID,21,VALID,0.488932,
2002-11-04, 02:57:00,VALID,916.269,VALID,0,VALID,98.3192,VALID,0,VALID,20.2181,VALID,45,VALID,0.546441,
2002-11-04, 02:58:00,VALID,916.276,VALID,0,VALID,98.295,VALID,0,VALID,20.1947,VALID,61,VALID,0.565402,
2002-11-04, 02:59:00,VALID,916.269,VALID,0,VALID,98.3192,VALID,-0.0339617,VALID,20.1952,VALID,74,VALID,0.574519,
2002-11-04, 03:00:00,VALID,916.272,VALID,0,VALID,98.3561,VALID,-0.0169808,VALID,20.1887,VALID,100,VALID,0.461884,
2002-11-04, 03:01:00,VALID,916.27,VALID,0,VALID,98.3077,VALID,-0.0169808,VALID,20.1785,VALID,120,VALID,0.533573,
2002-11-04, 03:02:00,VALID,916.277,VALID,0,VALID,98.2899,VALID,-0.0169808,VALID,20.1626,VALID,140,VALID,0.651476,
2002-11-04, 03:03:00,VALID,916.285,VALID,0,VALID,98.2836,VALID,0,VALID,20.1363,VALID,130,VALID,0.56033,
2002-11-04, 03:04:00,VALID,916.287,VALID,0,VALID,98.3141,VALID,0,VALID,20.137,VALID,133,VALID,0.620443,
2002-11-04, 03:05:00,VALID,916.285,VALID,0,VALID,98.3217,VALID,0,VALID,20.1271,VALID,122,VALID,0.490179,
2002-11-04, 03:06:00,VALID,916.286,VALID,0,VALID,98.3599,VALID,-0.0169808,VALID,20.1177,VALID,115,VALID,0.366186,
2002-11-04, 03:07:00,VALID,916.272,VALID,0,VALID,98.3764,VALID,0.0169808,VALID,20.1174,VALID,106,VALID,0.256866,
2002-11-04, 03:08:00,VALID,916.266,VALID,0,VALID,98.3866,VALID,-0.0169808,VALID,20.1077,VALID,105,VALID,0.357264,
2002-11-04, 03:09:00,VALID,916.251,VALID,0,VALID,98.4642,VALID,-0.0169808,VALID,20.0945,VALID,105,VALID,0.442708,
2002-11-04, 03:10:00,VALID,916.246,VALID,0,VALID,98.4896,VALID,0,VALID,20.1211,VALID,105,VALID,0.447917,
2002-11-04, 03:11:00,VALID,916.233,VALID,0,VALID,98.4743,VALID,0,VALID,20.1144,VALID,105,VALID,0.541884,
2002-11-04, 03:12:00,VALID,916.23,VALID,0,VALID,98.4934,VALID,-0.0339617,VALID,20.1052,VALID,101,VALID,0.457589,
2002-11-04, 03:13:00,VALID,916.219,VALID,0,VALID,98.4794,VALID,-0.0169808,VALID,20.102,VALID,98,VALID,0.27484,
2002-11-04, 03:14:00,VALID,916.2,VALID,0,VALID,98.5163,VALID,0,VALID,20.0754,VALID,97,VALID,0.354877,
2002-11-04, 03:15:00,VALID,916.178,VALID,0,VALID,98.585,VALID,0,VALID,20.0983,VALID,97,VALID,0.383868,
2002-11-04, 03:16:00,VALID,916.16,VALID,0,VALID,98.5748,VALID,0,VALID,20.1085,VALID,96,VALID,0.457682,
2002-11-04, 03:17:00,VALID,916.137,VALID,0,VALID,98.529,VALID,-0.0339617,VALID,20.0983,VALID,84,VALID,0.619792,
2002-11-04, 03:18:00,VALID,916.118,VALID,0,VALID,98.5277,VALID,-0.0679233,VALID,20.0792,VALID,79,VALID,0.753255,
2002-11-04, 03:19:00,VALID,916.106,VALID,0,VALID,98.5023,VALID,-0.0509425,VALID,20.0697,VALID,84,VALID,0.775446,
2002-11-04, 03:20:00,VALID,916.091,VALID,0,VALID,98.487,VALID,-0.0509425,VALID,20.0635,VALID,92,VALID,0.872596,
2002-11-04, 03:21:00,VALID,916.083,VALID,0,VALID,98.5405,VALID,-0.0849042,VALID,20.0469,VALID,92,VALID,1.0393,
2002-11-04, 03:22:00,VALID,916.087,VALID,0,VALID,98.5252,VALID,-0.0509425,VALID,20.0275,VALID,87,VALID,1.01309,
2002-11-04, 03:23:00,VALID,916.093,VALID,0,VALID,98.5277,VALID,-0.0679233,VALID,20.0148,VALID,72,VALID,1.02431,
2002-11-04, 03:24:00,VALID,916.105,VALID,0,VALID,98.5099,VALID,-0.0679233,VALID,19.9857,VALID,59,VALID,1.07617,
2002-11-04, 03:25:00,VALID,916.09,VALID,0,VALID,98.5646,VALID,-0.101885,VALID,19.9636,VALID,49,VALID,0.867188,
2002-11-04, 03:26:00,VALID,916.084,VALID,0,VALID,98.6129,VALID,-0.0849042,VALID,19.9539,VALID,53,VALID,0.921429,
2002-11-04, 03:27:00,VALID,916.087,VALID,0,VALID,98.6638,VALID,-0.0679233,VALID,19.937,VALID,59,VALID,1.22095,
2002-11-04, 03:28:00,VALID,916.079,VALID,0,VALID,98.7452,VALID,-0.0509425,VALID,19.9631,VALID,55,VALID,1.259,
2002-11-04, 03:29:00,VALID,916.072,VALID,0,VALID,98.7617,VALID,-0.0509425,VALID,19.9755,VALID,61,VALID,1.02956,
2002-11-04, 03:30:00,VALID,916.065,VALID,0,VALID,98.7236,VALID,-0.0509425,VALID,19.9601,VALID,63,VALID,1.08854,
2002-11-04, 03:31:00,VALID,916.05,VALID,0,VALID,98.7604,VALID,-0.0339617,VALID,19.9629,VALID,71,VALID,0.983507,
2002-11-04, 03:32:00,VALID,916.034,VALID,0,VALID,98.8024,VALID,-0.101885,VALID,19.986,VALID,87,VALID,1.14453,
2002-11-04, 03:33:00,VALID,916.019,VALID,0,VALID,98.8139,VALID,-0.0509425,VALID,19.9857,VALID,93,VALID,1.12254,